Whiteman AFB, MO

3:51 PM CDT on September 20, 2017 (GMT -0500)
Whiteman Air Force Base

Weather History for KSZL - September, 2013

Change the Weather History Date:

Tuesday, September 3, 2013

  Actual Average Record
Temperature  
Mean Temperature 69 °F -  
Max Temperature 82 °F 84 °F 96 °F (2000)
Min Temperature 56 °F 63 °F 56 °F (2013)
Cooling Degree Days 4    
Growing Degree Days 19 (Base 50)    
Moisture  
Dew Point 60 °F    
Average Humidity 77    
Maximum Humidity 100    
Minimum Humidity 40    
Precipitation  
Precipitation 0.00 in - - ()
Sea Level Pressure  
Sea Level Pressure 30.06 in    
Wind  
Wind Speed 4 mph (NE)    
Max Wind Speed 8 mph    
Max Gust Speed -    
Visibility 9 miles    
Events      
Averages and records for this station are not official NWS values.
T = Trace of Precipitation, MM = Missing Value Source: NWS Daily Summary

Daily Weather History Graph

Daily Weather History Graph

Search for Another Location

Airport or City:

Trip Planner

Search our weather history database for the weather conditions in past years. The results will help you decide how hot, cold, wet, or windy it might be!

Date:

Astronomy

Sep. 03, 2013 Rise Set
Actual Time 6:45 AM CDT 7:40 PM CDT
Civil Twilight 6:18 AM CDT 8:07 PM CDT
Nautical Twilight 5:45 AM CDT 8:40 PM CDT
Astronomical Twilight 5:12 AM CDT 9:13 PM CDT
Moon 5:00 AM CDT (9/3) 6:28 PM CDT (9/3)
Length of Visible Light 13h 49m
Length of Day
12h 55m
Waning Crescent, 3% of the Moon is Illuminated
Sep 3
Waning Crescent
Sep 5
New
Sep 12
First Quarter
Sep 19
Full
Sep 26
Last Quarter

Hourly Weather History & Observations

Time (CDT) Temp. Heat Index Dew Point Humidity Pressure Visibility Wind Dir Wind Speed Gust Speed Precip Events Conditions
12:58 AM 64.6 °F - 64.4 °F 99% 30.01 in 10.0 mi NNW 6.9 mph - N/A   Clear
1:58 AM 61.9 °F - 61.9 °F 100% 30.01 in 10.0 mi Variable 4.6 mph - N/A   Clear
2:58 AM 59.0 °F - 59.0 °F 100% 30.04 in 10.0 mi North 8.1 mph - N/A   Clear
3:58 AM 59.7 °F - 59.4 °F 99% 30.04 in 10.0 mi NNE 3.5 mph - N/A   Clear
4:58 AM 59.2 °F - 58.8 °F 99% 30.04 in 10.0 mi NNE 2.3 mph - N/A   Clear
5:58 AM 56.8 °F - 56.7 °F 99% 30.06 in 10.0 mi NE 2.3 mph - N/A   Clear
6:58 AM 56.7 °F - 56.3 °F 99% 30.07 in 10.0 mi NE 3.5 mph - N/A   Clear
7:58 AM 60.3 °F - 60.1 °F 99% 30.09 in 10.0 mi NE 3.5 mph - N/A   Clear
8:58 AM 65.5 °F - 61.5 °F 87% 30.10 in 10.0 mi East 4.6 mph - N/A   Clear
9:58 AM 70.2 °F - 62.6 °F 77% 30.11 in 10.0 mi East 2.3 mph - N/A   Clear
10:58 AM 75.0 °F - 61.5 °F 63% 30.12 in 10.0 mi SE 2.3 mph - N/A   Clear
11:58 AM 77.9 °F - 57.9 °F 50% 30.10 in 10.0 mi NNE 5.8 mph - N/A   Clear
12:58 PM 79.7 °F - 59.5 °F 50% 30.09 in 7.0 mi North 4.6 mph - N/A   Clear
1:58 PM 80.4 °F 80.9 °F 58.5 °F 47% 30.07 in 7.0 mi Variable 3.5 mph - N/A   Clear
2:58 PM 82.2 °F 82.3 °F 58.8 °F 45% 30.05 in 5.0 mi ENE 4.6 mph - N/A   Haze
3:58 PM 82.6 °F 82.3 °F 57.9 °F 43% 30.04 in 5.0 mi Variable 4.6 mph - N/A   Haze
4:58 PM 82.6 °F 82.2 °F 57.6 °F 42% 30.04 in 10.0 mi NNE 5.8 mph - N/A   Clear
5:58 PM 82.0 °F 81.5 °F 55.6 °F 40% 30.04 in 10.0 mi NE 5.8 mph - N/A   Clear
6:58 PM 78.1 °F - 61.5 °F 57% 30.03 in 10.0 mi NNE 4.6 mph - N/A   Clear
7:58 PM 71.1 °F - 66.4 °F 85% 30.04 in 10.0 mi NE 2.3 mph - N/A   Clear
8:58 PM 67.3 °F - 61.2 °F 81% 30.05 in 10.0 mi Calm Calm - N/A   Clear
9:58 PM 63.5 °F - 62.8 °F 97% 30.06 in 10.0 mi Calm Calm - N/A   Clear
10:58 PM 63.0 °F - 62.4 °F 98% 30.06 in 10.0 mi SSW 2.3 mph - N/A   Clear
11:58 PM 59.7 °F - 59.7 °F 100% 30.06 in 10.0 mi South 2.3 mph - N/A   Clear